Regional Weather Roundup
Issued by NWS

Home | Current Version | Previous Version | Text Only | Print | Product List | Glossary Off
Versions: 1 2 3 4 5 6 7 8 9 10 11 12 13 14 15 16 17 18 19 20 21 22 23 24 25 26 27 28 29 30 31 32 33 34 35 36 37 38 39 40 41 42 43 44 45 46 47 48 49 50

267
ASUS45 KSLC 200110
RWRUT

UTAH REGIONAL WEATHER ROUNDUP
NATIONAL WEATHER SERVICE SALT LAKE CITY UT
600 PM MST THU JAN 19 2017

UTZ001>011-023>025-200200-

NORTHERN UTAH

CITY           SKY/WX    TMP DP  RH WIND       PRES   REMARKS
BRIGHAM CITY     N/A     30  28  92 CALM      29.75S VSB 1
HILL AFB       SNOW      32  30  93 N3        29.72S VSB 1/2
LOGAN          CLOUDY    27  26  96 CALM      29.74S FOG
OGDEN          LGT SNOW  30  29  96 CALM      29.73S VSB 3/4
SALT LAKE CITY FOG       31  29  92 NW6       29.74R VSB 1/2 WCI  25
TOOELE VALLEY  LGT SNOW  32  30  93 CALM      29.74S
WENDOVER       CLOUDY    25  21  86 CALM      29.75S
HEBER CITY     LGT SNOW  32  30  93 CALM      29.69R
WEST JORDAN    CLOUDY    32  32 100 CALM      29.73S

$$

UTZ011>015-024>027-200200-

CENTRAL/NORTHEAST UTAH

CITY           SKY/WX    TMP DP  RH WIND       PRES   REMARKS
PROVO AIRPORT  CLOUDY    34  30  86 CALM      29.74S FOG
MOAB/CANYONLAN LGT SNOW  31  31 100 CALM      29.72S FOG
DELTA          CLOUDY    32  32 100 SE5       29.72S WCI  27
PRICE          LGT SNOW  28  27  96 CALM      29.71S FOG
RICHFIELD      CLOUDY    36  36 100 S6        29.71S WCI  31
ROOSEVELT      LGT SNOW  18  14  86 CALM      29.81S
VERNAL         LGT SNOW  17  14  88 CALM      29.77F FOG

$$

UTZ013>016-019>022-027-200200-

SOUTHERN UTAH

CITY           SKY/WX    TMP DP  RH WIND       PRES   REMARKS
BRYCE CANYON   SNOW      29  27  92 SE13      29.70F VSB 1/4 WCI  19
CEDAR CITY     LGT SNOW  32  31  96 SW12      29.70S FOG     WCI  23
MILFORD        FLURRIES  34  33  96 S10       29.70S WCI  26
ST GEORGE      CLOUDY    43  37  81 W3        29.80R
HANKSVILLE     CLOUDY    32  32 100 MISG      29.76R
KANAB          CLOUDY    34  34 100 CALM      29.81S
BLANDING       CLOUDY    31  31 100 E3        29.83F

$$

REGIONAL REPORTS     COLORADO/ARIZONA

CITY           SKY/WX    TMP DP  RH WIND       PRES   REMARKS
CRAIG, CO      LGT SNOW  27  23  85 CALM      29.72R FOG
GRAND JUNCTION LGT SNOW  32  32 100 SE3       29.75S FOG
RIFLE, CO      LGT SNOW  32  30  92 W3        29.75R FOG
MONTROSE, CO   LGT SNOW  34  31  88 E3        29.77R FOG
CORTEZ, CO     LGT SNOW  32  32 100 CALM      29.78F VSB 1
COLORADO CITY  LGT SNOW  34  34 100 NE3       29.79S
PAGE, AZ       LGT RAIN  41  33  73 CALM      29.75R
GRAND CANYON   CLOUDY    30  29  96 SW14G23   29.81R WCI  19
KINGMAN, AZ    PTCLDY    43  37  79 S13       29.81S
FLAGSTAFF, AZ  LGT SNOW  28  27  96 SW13      29.81S VSB 1   WCI  17

$$

REGIONAL REPORTS    NEVADA/IDAHO/WYOMING

CITY           SKY/WX    TMP DP  RH WIND       PRES   REMARKS
LAS VEGAS, NV  MOCLDY    53  35  50 SW8       29.73R
ELY, NY        CLOUDY    27  26  96 NW5       29.70S WCI  22
ELKO, NV       MOCLDY    33  27  78 W7        29.69S WCI  27
POCATELLO, ID  CLOUDY    35  30  82 CALM      29.69S
BURLEY, ID     CLOUDY    37  30  75 S10       29.67R WCI  30
FORT BRIDGER,  LGT SNOW  27  27 100 W7        29.70S WCI  19
EVANSTON, WY   LGT SNOW  28  25  88 SW7       29.68R FOG     WCI  21
ROCK SPRINGS,  LGT SNOW  18  15  88 S3        29.67S FOG

$$




USA.gov is the U.S. government's official web portal to all federal, state and local government web resources and services.